OneWeb SL0569

operational
NORAD ID: 55148 Int'l Des: 2023-004 Owner: ONEWEBN Country: UK Constellation: oneweb
LEOCIRCULARPOLARONEWEB_TYPE

About OneWeb SL0569

Description loading...

Live Position

Loading 3D Globe...

Upcoming Passes

Altitude History

Altitude vs Time

uPlot chart will show altitude changes over time

Two-Line Element Set

1 55148U 23004J 26036.83030177 .00000205 00000-0 52672-3 0 9990
2 55148 87.9038 346.3195 0001464 112.3803 247.7481 13.13472284152932
Epoch: Feb 5, 2026 • Age: 5 hours

Current Status

Altitude 1219.0 km
Velocity 7.24 km/s
Sub-Earth Point -24.53°S, 21.75°E
Launch Date Jan 10, 2023
Age 3 years
Type internet

Technical Details

Classification Payload
Mass 148.00 kg
Dry Mass 140.00 kg
Total Mass 148.00 kg
Length 1.30 m
Diameter 1.00 m
Span 5.00 m
Shape Trapezoid+2 pan
Manufacturer ONEWUS
Bus Type ARROW
Phase Status In Orbit
Owner/State ONEWEBN/UK

Large Constellations

Loading constellations...